Location: Daytona Beach
(29.2106°N, 81.0231°W)
Time: 18:33:18
(UTC-04:00)

N. Korean satellite - Visible Passes

Search period start: 20 June 2021 00:00
Search period end: 30 June 2021 00:00
Orbit: 450 x 500 km, 97.2° (Epoch: 20 June)

Date Brightness Start Highest point End Pass type
(mag) Time Alt. Az. Time Alt. Az. Time Alt. Az.
22 Jun 9.3 05:57:06 10° NE 05:59:54 21° E 06:02:42 10° SSE visible
26 Jun 9.7 05:42:12 10° ENE 05:43:53 13° E 05:45:33 10° ESE visible
29 Jun 9.4 05:52:37 10° NE 05:55:14 18° E 05:57:49 10° SE visible
